Wind_Speed
14 14 14 15 15 15 15 16 17 17 17 16 16 15 14 13 13 12 12 11 11 10 10 10 10 11 11 11 11 12 14 15 16 17 18 19 19 17 16 15 13 11 8 7 7 7 6 5 4 4 4 3 3 3 3 4 6 7 9 9 12 11 7 8 4 2 4 3 3 8 10 9 9 8 10 10 10 10 9 10 13 12 9 8 7 9 12 13
14 14 15 16 16 16 15 15 16 16 17 17 16 16 15 13 13 12 12 12 11 11 10 10 11 11 12 12 13 13 14 16 17 16 18 19 20 19 18 16 15 12 9 9 9 8 8 6 5 5 5 3 3 3 3 4 5 7 8 8 10 10 9 10 4 2 3 3 3 7 8 8 7 6 8 10 10 9 8 7 11 12 9 8 8 10 12 12
14 15 16 17 18 18 17 16 15 15 16 17 16 16 15 14 13 13 12 12 12 11 11 11 11 11 12 13 14 14 15 16 17 17 17 18 20 20 20 18 16 14 11 11 11 10 9 7 7 6 6 4 4 4 4 4 4 5 7 7 8 8 9 10 5 2 2 2 3 6 7 8 8 6 7 9 10 9 7 3 6 11 10 9 10 11 12 12
13 14 16 18 19 19 18 17 16 15 15 16 16 16 16 15 14 13 13 12 12 12 12 11 11 12 13 14 15 16 16 16 17 18 17 18 19 21 21 20 18 16 14 13 13 12 10 9 8 8 7 5 5 5 5 5 4 4 6 7 7 8 8 9 6 3 1 2 3 6 8 9 8 7 6 7 8 9 8 5 6 9 9 10 11 13 13 12
13 14 15 18 19 20 20 19 18 16 15 15 15 16 15 15 14 14 13 13 13 13 12 12 12 12 13 14 16 17 18 18 18 18 18 18 19 20 21 21 20 19 17 16 16 14 12 11 10 9 8 6 7 7 6 6 5 5 6 7 7 7 8 8 5 3 2 4 4 8 9 9 9 7 6 6 7 8 9 7 7 9 8 9 11 13 14 14
13 14 15 18 20 21 21 20 18 17 16 15 15 15 15 15 15 14 14 13 13 13 13 13 13 13 13 15 16 18 19 18 18 18 18 18 18 20 20 21 22 21 20 19 18 17 14 12 11 11 9 8 8 8 8 7 6 6 6 7 7 7 7 7 6 5 3 5 8 10 9 9 10 8 7 8 8 8 9 8 8 9 7 8 10 13 15 15
14 15 16 18 21 22 22 20 18 17 16 15 14 14 15 15 15 15 14 14 13 13 13 13 14 14 14 15 17 18 19 19 19 19 19 19 18 19 20 21 23 23 22 21 21 20 17 14 13 12 11 9 10 9 9 8 7 7 7 8 8 7 7 8 7 6 5 7 11 12 10 11 11 10 9 9 9 8 9 9 8 9 8 7 9 12 15 16
15 16 17 19 21 22 21 19 17 16 15 15 14 14 14 14 14 14 14 14 14 13 14 14 14 14 15 15 16 18 19 19 20 20 20 20 20 20 19 20 22 23 23 23 24 22 19 16 14 14 12 11 11 11 9 8 8 8 8 8 8 8 8 8 6 6 8 9 14 13 11 12 12 11 10 10 10 8 8 8 7 9 9 8 8 11 14 16
16 17 18 20 22 22 20 18 16 15 14 14 14 14 13 13 13 14 14 13 13 13 14 14 14 15 15 16 16 17 19 19 21 22 22 22 22 21 20 21 22 23 24 25 26 25 23 19 16 15 14 13 12 12 10 9 9 9 9 9 8 8 8 7 7 8 10 11 15 14 13 13 11 12 11 10 10 9 8 7 7 8 9 8 9 10 12 15
16 17 18 20 21 21 19 17 16 16 15 14 14 14 13 13 13 13 13 13 13 13 14 14 15 16 16 16 16 17 19 20 22 23 24 24 24 24 23 22 22 23 24 25 28 28 25 20 17 16 15 15 14 13 12 11 10 10 9 9 9 8 7 7 7 8 11 13 17 15 13 13 13 13 13 12 11 10 9 8 7 7 9 8 9 11 12 14
16 17 19 20 21 20 19 18 17 16 16 15 15 14 14 13 12 12 12 13 13 14 14 15 16 17 17 17 17 18 20 22 23 24 25 26 26 26 25 25 24 23 23 26 30 30 25 21 19 17 17 17 15 15 13 12 11 11 9 9 9 8 7 6 5 6 12 15 18 16 14 14 14 14 14 14 13 12 11 9 8 6 8 9 8 10 12 13
16 17 19 20 20 20 19 18 18 17 17 16 15 14 13 13 12 12 12 13 14 15 15 16 16 17 18 18 18 19 20 21 22 24 25 26 27 27 27 27 26 25 25 28 31 28 23 22 20 18 18 17 16 16 14 13 13 12 10 9 9 9 6 4 4 2 9 16 19 17 15 14 14 14 13 13 13 12 12 9 8 7 8 9 9 10 12 13
16 17 18 20 20 19 18 18 18 17 17 16 15 14 13 12 12 12 13 14 14 15 15 15 16 17 17 18 18 18 19 19 21 22 24 26 27 27 28 28 27 27 27 29 30 25 23 22 20 19 18 17 17 16 15 14 13 12 10 9 9 7 5 4 3 2 2 12 19 18 15 14 13 14 13 14 13 12 12 11 9 7 7 9 9 9 11 12
17 17 18 19 19 18 18 18 18 17 17 16 15 14 13 13 13 13 14 14 14 14 14 14 14 15 16 16 16 17 17 17 18 19 21 24 26 27 28 29 29 29 29 30 28 24 23 22 20 20 19 17 17 17 16 15 14 13 11 8 8 6 4 4 3 1 3 9 18 20 17 15 15 14 14 14 14 13 13 12 10 8 7 9 10 9 10 12
16 17 18 19 18 18 18 18 18 18 17 16 15 14 14 14 14 14 14 14 14 14 14 13 13 13 13 14 14 14 14 14 15 16 19 22 24 27 28 29 30 30 31 31 28 24 23 22 20 20 18 17 17 17 16 16 15 14 11 8 7 5 4 4 2 2 3 9 18 22 19 16 16 16 14 14 14 14 13 12 12 9 9 9 11 10 10 11
16 17 18 19 18 18 18 18 19 18 17 15 14 14 14 14 14 14 14 13 14 13 13 12 12 12 12 12 12 12 12 12 13 15 16 19 22 25 28 29 30 31 32 32 28 25 23 21 20 19 18 17 16 16 17 17 17 15 12 9 7 5 4 3 1 3 5 9 18 22 19 15 15 16 15 14 14 14 13 12 12 10 10 10 11 12 11 12
16 17 19 19 18 18 18 19 19 18 16 15 14 14 14 14 14 13 13 13 13 12 12 11 10 10 11 10 10 10 11 11 12 13 14 16 19 23 26 29 30 31 32 31 28 26 24 21 20 19 19 17 15 16 18 18 17 15 13 10 8 6 4 2 2 5 6 9 17 21 18 15 14 14 15 15 15 14 13 13 12 10 10 11 11 12 12 11
17 18 19 18 18 18 18 19 19 18 17 15 15 15 15 14 14 13 12 12 11 11 10 10 9 9 9 9 9 9 10 11 12 12 13 14 17 20 24 27 30 31 32 31 28 26 25 22 20 19 17 16 16 17 18 17 16 15 13 10 9 7 5 3 3 5 6 8 18 22 18 16 14 13 14 15 15 13 13 13 12 10 10 10 11 12 12 11
17 18 19 18 18 18 18 19 19 19 18 17 16 15 15 14 13 12 11 10 10 9 9 8 8 8 7 8 9 9 9 11 12 13 13 13 15 18 21 25 28 30 32 31 29 27 26 23 20 18 16 17 20 20 17 16 16 15 14 11 9 8 6 5 3 3 4 8 18 23 20 16 14 14 13 14 14 13 12 12 12 10 10 10 10 11 12 12
17 18 18 18 18 18 19 19 20 19 18 17 16 15 14 13 12 11 10 10 9 8 8 7 7 7 7 8 9 9 9 11 12 13 14 14 14 16 19 23 26 29 31 31 29 28 26 23 20 18 19 22 23 20 17 17 16 15 14 12 10 10 9 7 4 3 3 7 15 22 21 16 12 13 12 12 12 12 12 11 12 11 11 11 11 11 12 13
17 18 18 17 18 18 19 20 20 19 18 17 16 15 13 13 12 11 11 10 10 8 7 6 6 6 6 7 8 8 9 10 11 13 14 15 15 16 19 21 25 28 30 30 29 27 26 24 22 22 25 27 23 19 19 18 17 16 15 13 12 11 10 9 7 5 4 6 11 19 21 16 12 10 10 10 11 13 15 14 13 13 12 12 11 11 12 13
18 18 18 17 18 19 19 19 19 19 18 17 16 14 13 12 11 11 11 11 10 9 8 7 6 5 5 6 6 7 8 8 10 11 13 15 16 17 18 21 24 27 28 28 28 27 27 26 25 27 28 27 23 20 20 19 17 16 16 15 13 12 11 10 9 7 5 6 10 15 18 16 13 10 9 11 12 14 16 16 16 15 14 13 11 11 12 14
17 18 17 17 18 19 19 19 19 18 18 17 16 14 14 14 13 12 11 11 10 9 8 7 6 5 6 6 6 6 7 8 9 10 11 12 14 16 18 20 23 25 27 28 28 28 28 29 29 30 30 27 24 23 22 19 17 17 17 16 15 13 12 11 11 9 7 7 9 10 11 10 9 11 12 13 14 14 14 15 16 16 15 14 12 12 14 15
17 17 17 17 19 20 20 19 19 19 18 17 17 17 17 16 16 14 12 11 10 9 8 8 7 6 6 6 6 7 8 9 9 9 9 10 11 13 16 19 21 24 26 28 28 29 30 31 31 31 30 28 26 24 23 21 20 20 19 17 16 14 14 12 11 11 9 9 8 8 8 6 4 8 13 16 15 14 13 13 14 16 16 14 12 12 13 15
16 17 17 18 19 20 20 20 20 19 19 18 18 18 18 17 16 15 13 11 10 8 7 7 8 7 6 6 7 7 8 9 9 10 10 9 10 12 14 16 20 23 25 27 28 30 32 33 33 33 32 29 27 26 25 23 23 22 20 18 16 14 14 13 13 12 11 10 9 8 8 7 5 6 11 15 16 15 13 13 14 16 16 15 13 13 13 15
16 16 16 17 19 20 20 20 20 19 18 18 18 18 17 16 16 15 14 12 10 9 7 7 7 6 6 7 7 7 8 9 9 10 10 9 9 10 12 15 18 21 24 26 29 31 33 34 35 35 33 31 29 27 27 25 23 22 21 19 17 16 15 15 14 13 12 11 10 8 7 7 6 5 6 9 11 14 15 14 14 15 15 16 16 15 15 16
16 16 16 17 18 20 20 20 20 19 18 17 17 17 17 16 15 15 14 13 12 11 9 8 7 7 7 8 7 7 7 8 8 8 8 8 9 9 11 14 17 20 23 26 29 31 34 35 36 37 35 33 31 29 30 28 24 22 23 22 20 20 19 16 15 15 13 11 10 8 7 6 5 5 5 5 6 9 12 15 16 15 15 17 18 17 17 17
16 16 16 17 18 19 20 20 19 18 17 16 15 16 16 15 14 14 14 14 13 12 10 9 9 9 8 7 7 7 7 7 7 6 7 8 8 8 11 13 17 20 23 26 30 33 35 36 38 39 38 35 32 32 32 30 27 24 23 24 23 21 19 17 16 16 15 13 11 9 8 6 5 5 6 6 6 5 8 14 18 17 16 18 19 19 19 18
16 17 17 17 18 19 19 19 18 17 16 15 15 15 15 15 14 14 13 13 13 12 11 11 10 10 9 8 8 7 7 7 6 6 7 7 8 9 10 12 15 19 21 25 30 33 35 36 39 41 39 35 33 33 33 32 30 27 23 23 22 20 18 17 16 15 14 14 12 11 9 8 7 6 6 6 6 6 7 11 17 21 21 20 21 21 20 19
17 18 18 18 18 18 18 18 17 17 16 15 14 14 14 14 13 13 13 12 12 12 12 12 11 10 10 9 9 8 7 7 6 6 7 7 8 9 9 11 13 17 20 24 28 32 34 35 38 40 38 35 34 34 35 33 31 30 26 23 22 21 19 17 16 14 14 13 11 10 10 9 8 8 8 7 6 7 9 11 15 21 25 25 23 22 21 20
19 19 19 19 18 17 18 17 16 15 15 14 14 13 14 14 13 12 12 12 12 12 13 12 10 10 9 9 9 9 8 7 6 7 7 7 8 9 10 11 13 15 18 22 27 30 31 33 36 38 38 37 36 36 37 34 31 30 29 25 24 22 19 16 15 14 14 13 11 10 10 10 9 9 9 8 7 6 7 8 10 19 27 28 25 22 21 20
20 20 20 19 18 17 17 16 15 14 14 14 13 12 13 13 12 11 11 12 11 11 12 10 9 9 8 9 8 9 9 7 6 6 7 7 8 9 11 12 12 14 16 20 23 26 28 30 32 34 37 38 38 38 38 37 34 31 29 27 26 24 20 16 14 12 12 12 11 10 9 9 9 10 10 9 9 7 5 4 7 14 27 29 24 22 20 20
19 20 19 19 18 16 16 15 14 14 13 13 13 12 11 11 11 11 10 11 11 11 11 9 8 7 7 8 8 8 9 8 7 7 8 8 9 10 11 12 12 13 15 17 19 21 24 27 28 31 35 38 39 39 38 36 34 31 28 28 26 23 20 17 15 13 12 11 9 9 10 10 8 9 10 10 10 9 8 6 7 7 23 27 23 22 21 21
19 19 19 18 17 16 15 14 13 13 13 13 12 12 11 10 11 10 9 10 10 10 9 8 7 6 6 7 8 8 9 9 8 8 8 9 10 10 10 10 10 11 13 15 15 16 19 22 25 29 33 37 37 38 37 35 33 31 29 29 26 23 21 18 16 15 14 13 10 9 11 10 8 7 8 9 8 8 9 8 4 4 17 22 21 23 23 23
19 19 18 18 16 15 15 13 12 12 12 12 12 12 11 10 11 10 8 9 10 9 8 7 6 5 6 6 7 8 9 9 8 8 9 9 10 10 10 9 9 10 11 12 13 14 15 18 22 27 32 34 34 35 37 36 34 32 32 32 28 25 23 21 20 19 18 17 14 10 10 11 9 7 6 6 6 5 5 6 5 4 10 16 17 19 22 24
19 18 18 17 16 15 14 13 12 12 12 12 11 11 10 9 10 10 8 8 9 9 8 6 5 5 5 6 6 8 9 9 9 9 9 10 10 11 10 9 8 10 11 11 13 14 15 17 21 25 28 30 31 33 35 37 36 35 35 33 29 25 24 24 23 22 21 20 17 13 12 12 11 8 6 6 6 6 6 6 6 4 7 11 14 16 21 26
18 18 17 17 16 15 14 12 11 12 12 12 11 11 10 10 10 10 9 7 7 8 8 6 4 4 5 5 6 9 9 9 9 9 10 10 11 11 11 10 10 11 11 11 13 15 16 18 21 23 24 27 29 30 33 36 35 36 34 30 28 27 26 26 25 23 22 20 18 16 16 16 14 12 12 11 10 10 9 8 7 6 6 9 12 15 19 27
19 18 17 16 16 16 15 13 12 11 12 12 11 11 11 10 10 10 9 7 6 7 8 6 4 3 4 4 6 8 8 8 9 9 10 11 10 11 11 12 12 13 13 13 14 15 18 19 21 23 23 23 26 28 32 35 34 34 32 28 28 30 28 27 26 24 22 20 18 18 18 19 18 17 17 16 13 13 12 12 10 8 7 8 11 15 17 27
19 18 17 16 17 17 16 14 12 11 11 12 11 11 11 10 9 9 8 7 6 7 8 7 5 4 4 4 5 7 6 7 9 10 11 10 9 10 11 12 14 14 14 15 15 15 19 21 21 23 23 21 23 26 29 32 33 33 31 28 28 30 28 27 26 24 22 20 19 19 19 19 17 17 18 17 15 14 14 14 12 10 8 7 9 13 14 22
20 19 17 17 18 17 16 15 13 11 11 11 10 10 10 9 9 8 7 7 7 7 8 8 7 5 4 4 5 5 6 7 9 9 10 10 10 10 10 11 14 16 15 16 16 16 19 23 21 21 24 23 22 24 27 29 31 31 31 28 26 27 27 25 23 23 22 21 20 20 20 19 17 16 18 17 16 16 15 15 14 12 10 7 7 8 9 13
21 20 18 19 19 18 17 16 14 11 10 10 10 10 9 9 10 8 7 7 8 9 9 9 9 7 5 5 5 5 7 8 8 9 10 12 12 12 11 12 13 16 18 17 17 17 19 23 23 21 24 25 23 22 24 28 30 30 30 29 26 25 25 23 21 22 23 23 22 22 22 20 17 17 18 17 16 16 16 16 15 13 13 11 10 9 9 11
22 20 19 20 20 18 17 16 14 12 11 10 10 10 9 9 9 8 7 7 8 9 8 9 10 8 5 6 6 6 7 9 10 10 11 13 14 14 13 14 14 16 19 19 19 19 18 21 24 23 23 26 26 24 23 25 28 29 29 30 27 25 25 25 24 22 23 23 24 23 24 21 17 17 18 17 16 16 16 16 16 15 15 13 12 12 12 13
22 21 21 21 20 19 17 16 14 12 11 11 11 10 9 9 9 8 8 8 8 8 9 10 11 9 7 6 7 7 8 10 11 12 13 14 15 15 14 14 14 15 18 21 21 21 20 21 23 25 25 26 27 28 25 23 26 28 28 29 28 26 26 26 26 25 25 25 25 25 25 22 18 18 19 18 17 16 16 17 17 16 15 14 13 13 14 16
22 22 22 22 21 20 18 16 14 13 12 11 12 11 10 10 9 8 8 8 9 9 9 11 11 10 8 7 8 8 9 10 11 12 13 14 15 15 14 13 15 15 17 21 23 23 23 22 22 24 26 26 28 30 29 25 26 28 29 28 28 28 28 27 27 27 27 27 27 27 26 22 18 18 20 19 18 17 17 17 16 16 14 12 12 12 14 16
23 22 22 23 23 21 19 17 15 14 13 12 13 12 10 10 9 8 8 9 9 9 10 12 12 11 10 8 8 9 9 10 11 11 12 14 14 15 14 14 15 17 17 20 23 25 26 24 23 23 25 27 28 30 31 28 26 28 31 30 28 28 29 30 30 30 29 28 28 27 26 22 18 19 21 21 20 19 17 17 16 15 13 12 11 12 13 15
25 23 22 23 23 22 20 18 16 16 14 13 13 13 11 10 9 8 8 9 11 11 11 13 13 12 11 10 9 10 10 10 11 12 12 13 14 15 15 15 16 18 18 19 22 25 27 26 25 24 25 27 28 29 30 30 27 27 30 32 31 30 29 30 32 33 31 29 28 27 25 22 19 20 22 22 22 20 19 17 16 15 13 12 12 13 14 15
27 26 24 23 24 23 21 19 17 17 16 15 14 13 12 11 10 8 6 8 10 11 12 13 13 13 13 11 10 10 11 11 11 12 13 13 14 15 16 17 18 18 19 19 20 22 25 27 28 27 26 27 28 28 29 30 29 28 28 29 31 31 29 29 31 33 34 31 28 26 23 21 20 20 21 23 24 22 20 18 16 15 13 12 14 15 15 16
28 28 26 24 24 24 23 21 19 18 17 16 15 14 12 11 11 10 7 7 8 10 12 13 13 13 13 13 12 12 12 12 12 12 13 13 14 14 15 16 17 18 18 18 18 19 21 23 27 30 30 29 29 30 30 30 31 30 30 29 28 29 29 29 30 32 34 33 30 26 23 21 21 20 21 23 25 24 22 20 19 18 15 14 15 15 15 14
29 29 28 26 25 24 24 23 22 20 18 17 16 15 14 12 12 12 9 7 7 8 10 12 12 12 13 14 14 13 13 13 14 13 13 14 14 13 13 14 14 16 17 17 18 18 18 19 23 29 31 30 31 31 32 32 32 32 32 31 30 29 28 29 31 31 32 33 32 29 26 24 22 22 22 22 24 25 25 24 23 21 19 18 17 16 15 14
30 29 29 28 27 26 25 24 23 21 20 18 17 16 15 14 13 13 11 9 8 8 9 11 11 11 12 14 14 14 14 14 14 15 14 14 14 13 12 12 12 13 15 16 17 18 17 18 21 25 29 32 33 33 33 33 34 34 34 33 32 31 30 30 31 32 32 33 33 32 30 27 25 23 22 23 24 24 24 24 24 24 23 22 19 18 17 16
31 30 29 29 28 27 27 26 24 23 21 19 19 18 17 15 14 13 12 11 10 10 10 11 13 13 13 15 15 16 16 15 14 15 15 14 15 14 13 12 12 12 14 16 17 18 18 19 20 23 26 29 32 35 35 34 34 35 35 35 34 33 32 31 31 32 33 33 34 34 33 31 28 25 24 24 24 24 24 23 23 23 24 23 21 19 18 18
33 31 30 29 28 28 28 27 26 25 23 21 20 19 18 17 15 14 14 13 13 12 12 12 14 15 15 16 17 18 18 17 16 16 15 14 15 14 13 13 12 13 15 16 17 18 19 19 20 21 23 25 28 31 33 33 34 36 37 36 36 35 34 33 32 31 32 33 33 34 35 34 32 30 27 26 26 26 25 24 23 23 23 23 21 19 19 18
Wind_Direction
354 351 348 345 340 334 329 326 326 327 328 328 327 325 320 313 306 299 294 288 282 276 269 261 253 249 246 245 243 239 236 232 227 219 213 212 212 208 210 215 217 218 219 228 242 246 253 259 263 261 261 286 314 345 356 18 29 24 20 39 47 40 35 21 12 32 37 62 152 161 151 153 162 160 145 134 127 122 122 117 109 103 92 76 87 111 111 107
353 350 348 346 343 338 332 326 322 320 321 323 324 324 322 316 309 301 295 288 283 275 268 261 253 247 244 243 243 242 240 236 232 224 217 215 215 213 212 214 216 217 219 225 233 238 245 252 257 260 260 272 290 309 322 357 16 11 8 27 46 39 17 8 28 85 1 29 145 177 158 153 158 159 150 136 128 118 112 111 108 108 101 89 99 113 111 108
351 348 347 346 345 341 337 331 325 319 316 317 319 320 321 319 313 305 297 291 285 278 269 262 254 247 241 240 241 242 242 241 237 231 223 218 217 218 216 215 216 217 221 224 228 232 238 245 251 254 254 257 266 277 297 326 358 2 357 9 35 36 12 3 19 59 332 334 172 182 165 158 156 152 154 138 130 120 101 89 104 111 109 103 110 117 114 110
347 344 343 344 344 342 339 335 330 324 317 314 314 315 316 317 315 309 301 294 287 281 274 265 257 249 241 238 238 240 242 242 241 237 231 223 219 220 219 217 217 219 223 226 228 229 232 238 243 248 250 253 261 268 285 303 323 344 346 346 15 29 9 1 4 8 285 258 193 182 179 166 153 145 145 132 130 119 104 99 101 104 107 111 119 122 117 113
344 340 339 341 343 342 339 336 332 327 321 315 311 310 311 312 313 310 305 299 292 286 279 271 261 251 243 238 237 239 240 241 242 242 239 232 225 223 221 218 218 221 224 227 229 228 227 231 237 241 246 250 258 265 271 284 302 322 332 331 358 20 360 352 351 344 251 226 191 188 191 165 149 142 131 124 123 115 109 110 105 100 99 109 124 127 121 119
342 338 337 339 341 341 338 335 331 327 322 317 311 308 306 307 307 307 305 301 296 291 284 277 269 258 248 241 238 238 239 239 241 243 243 239 233 228 224 220 218 220 225 229 230 228 225 227 233 237 240 243 250 258 263 273 290 304 312 318 340 2 347 332 324 319 265 213 191 194 190 162 153 148 136 127 124 124 123 120 114 107 98 105 127 131 125 123
340 338 337 339 340 340 338 335 331 328 324 320 314 309 306 303 303 303 301 299 296 292 287 281 275 267 256 246 241 240 239 238 239 241 242 242 239 234 229 224 221 219 223 230 231 229 226 226 231 237 239 240 246 253 259 267 280 292 298 308 326 342 339 328 319 304 269 215 198 196 181 166 163 155 146 135 128 135 136 131 125 117 105 105 129 137 129 124
340 338 339 340 340 340 339 337 334 332 329 325 320 315 310 305 303 301 299 297 294 291 286 282 276 270 263 255 247 242 239 237 236 237 239 241 241 239 234 229 226 222 222 229 232 229 227 227 229 234 238 242 245 249 255 263 272 283 290 300 315 330 334 329 320 286 256 218 203 195 173 170 169 156 150 140 132 139 144 140 136 125 112 108 129 141 133 126
340 339 340 342 342 343 343 342 340 338 335 332 327 322 317 312 308 304 302 299 294 291 286 282 277 271 265 260 254 246 240 236 234 234 234 236 238 238 236 232 229 226 223 227 232 230 226 227 228 230 235 240 244 246 251 257 264 274 283 293 304 320 326 320 311 272 241 213 202 190 171 172 170 159 151 141 137 143 150 148 145 131 116 113 130 142 137 130
341 340 341 343 344 345 345 345 344 342 339 335 331 326 322 318 314 310 306 302 298 293 288 283 277 273 267 261 256 247 242 237 232 231 231 231 233 234 234 232 229 227 225 227 232 230 226 227 230 231 233 237 240 243 247 251 259 267 275 287 296 310 317 318 315 259 226 206 195 183 173 175 171 166 158 148 145 150 157 153 153 140 121 117 129 142 141 135
341 340 342 344 345 345 345 346 345 344 341 337 333 329 324 321 317 314 310 306 302 298 291 285 278 273 268 262 255 247 243 240 234 231 230 230 231 232 233 233 230 227 225 227 232 230 226 227 230 233 235 236 237 239 242 246 253 261 269 282 289 300 303 318 336 248 218 200 189 178 175 180 177 174 164 155 153 154 160 158 160 153 130 122 128 141 146 142
341 341 342 344 344 345 344 345 344 344 342 340 336 332 328 324 320 317 313 310 306 302 295 288 281 274 268 263 257 249 246 243 238 234 231 230 231 231 232 233 232 228 225 227 232 232 227 226 229 234 237 237 238 240 241 243 250 256 264 273 281 295 299 313 4 275 213 194 186 178 175 181 179 177 168 160 157 156 159 159 164 164 143 132 129 139 148 150
341 341 342 343 344 344 344 344 344 344 343 342 339 336 332 327 323 319 316 312 308 304 298 292 284 276 270 265 260 255 250 245 242 238 234 232 231 231 232 233 234 231 229 229 231 231 229 227 229 235 238 239 240 242 241 243 248 252 259 266 273 292 311 316 336 359 236 199 190 180 177 181 179 177 171 162 160 162 161 159 166 174 161 143 133 138 148 154
340 340 341 342 343 344 344 345 344 345 344 342 340 337 334 329 325 322 318 314 309 305 300 295 288 280 274 268 262 258 253 248 245 242 238 234 232 231 231 232 233 233 233 233 232 228 227 226 228 234 238 240 242 242 242 243 246 249 253 257 265 281 307 305 284 308 314 223 198 184 179 179 176 177 174 166 163 168 167 162 166 179 180 157 140 137 146 155
340 340 341 342 344 344 345 346 346 346 343 342 340 338 336 332 329 325 321 316 311 307 303 298 292 285 279 272 265 259 255 251 245 240 236 234 232 230 230 231 232 233 234 236 234 229 226 224 225 232 237 240 242 241 241 243 244 247 249 250 257 270 289 293 276 268 270 230 207 191 182 175 173 177 175 170 168 171 174 168 166 178 191 171 150 144 147 156
340 340 340 342 344 345 346 348 348 345 342 341 341 341 340 336 333 329 325 319 313 307 302 298 293 288 282 275 267 260 254 249 243 239 236 234 231 230 230 230 231 232 235 236 235 231 228 224 223 229 234 238 243 243 242 241 241 244 246 248 248 258 286 295 268 246 245 232 211 193 182 175 174 175 172 173 175 174 179 176 168 176 193 184 163 153 152 158
340 340 340 342 345 346 348 349 347 344 342 343 345 346 344 341 337 333 328 321 314 306 300 294 290 285 282 276 268 261 256 251 245 241 236 232 230 230 229 229 230 232 235 236 235 233 230 225 222 226 232 237 242 243 241 241 241 243 246 243 241 246 261 287 269 237 237 229 211 195 183 175 174 175 171 174 180 178 181 182 172 176 192 194 178 160 155 158
341 340 341 343 345 347 349 349 347 346 346 347 349 349 348 344 340 337 331 324 317 308 301 294 288 285 281 275 267 259 253 252 249 243 236 230 228 230 229 228 228 231 234 235 233 232 231 227 221 222 230 235 238 239 237 238 239 241 246 241 239 241 236 261 270 238 238 222 209 200 185 174 173 174 171 172 180 182 184 183 173 176 194 201 192 170 157 158
340 340 341 344 345 347 349 349 348 348 348 349 351 351 349 346 345 343 338 330 321 313 305 296 288 285 279 271 267 260 253 252 251 248 242 235 230 229 229 228 228 229 232 232 230 229 229 227 220 219 226 231 232 233 232 234 234 235 242 237 233 235 226 233 243 230 235 210 206 201 184 172 166 165 169 172 180 188 189 183 171 177 197 205 202 183 165 162
340 340 342 344 346 347 349 349 349 350 349 350 352 352 351 352 354 353 349 341 332 322 311 298 288 280 273 268 266 261 255 251 252 251 247 242 236 231 230 229 229 228 230 230 227 225 225 224 216 213 221 225 225 226 226 229 229 230 236 233 226 230 225 219 217 224 209 192 203 201 188 180 172 165 171 173 178 188 190 183 174 180 200 207 205 194 177 166
340 341 343 345 347 348 349 349 350 350 350 351 352 353 355 1 5 1 355 349 342 336 324 308 293 283 274 269 266 262 258 253 251 250 247 244 239 234 231 230 229 228 229 229 225 221 221 219 212 210 218 223 221 218 220 224 224 225 229 227 223 228 228 215 203 202 192 180 193 194 189 190 187 179 183 182 178 185 189 184 178 184 199 207 207 200 187 173
339 341 343 347 349 349 350 350 351 350 350 352 352 353 358 9 14 8 359 353 346 340 335 323 308 300 292 281 273 267 261 254 251 250 248 244 239 235 231 230 229 229 229 228 224 218 216 215 210 212 219 222 218 216 217 219 220 221 223 221 218 222 227 216 203 198 189 173 172 179 185 191 198 203 203 199 193 191 191 185 180 185 193 200 204 201 196 184
339 341 344 348 350 350 350 351 351 350 351 352 351 353 1 11 15 12 4 357 352 345 338 332 324 316 305 295 286 275 266 259 254 249 247 246 242 236 231 228 228 228 228 226 222 215 212 212 210 212 218 220 216 215 216 215 215 217 218 217 214 215 219 213 205 201 189 169 159 165 178 185 204 219 212 207 204 201 200 192 183 184 190 194 194 195 200 194
339 342 345 349 350 350 350 351 350 350 352 352 352 356 1 6 9 9 5 360 357 351 341 335 331 323 310 301 293 283 276 270 262 254 249 245 242 238 233 228 227 226 226 223 220 214 210 209 209 212 217 217 214 214 215 214 215 216 216 216 215 213 215 215 207 202 192 180 171 169 176 175 191 211 208 207 206 203 205 202 191 188 191 190 184 191 204 203
337 341 346 349 350 350 350 350 350 351 353 353 355 357 359 1 3 4 4 4 2 353 345 339 332 324 317 309 297 286 278 274 270 266 262 251 240 238 235 230 226 224 223 221 218 213 210 208 207 211 215 215 212 212 214 214 211 212 212 212 214 213 214 217 213 206 195 185 179 173 176 176 157 165 190 201 206 209 208 204 197 196 194 186 180 189 203 209
334 339 345 348 350 351 351 351 351 351 353 355 355 356 355 356 0 2 2 4 4 359 354 347 338 329 323 315 306 294 280 273 269 267 268 261 248 241 235 230 227 225 221 218 215 213 211 207 205 210 214 214 210 208 213 212 203 203 208 208 210 210 210 211 212 210 198 183 177 172 171 179 173 159 165 183 203 216 216 210 204 202 198 189 185 189 195 204
330 335 341 345 348 351 352 352 351 350 352 354 354 355 353 353 358 3 359 357 359 0 1 355 346 336 329 323 317 304 284 274 270 264 266 265 260 251 238 229 225 224 221 217 214 212 211 207 204 208 213 213 209 207 212 210 202 203 206 205 207 209 208 206 207 209 205 192 183 181 181 183 190 194 187 184 202 219 222 221 216 208 204 197 192 191 193 197
325 328 334 339 343 347 349 351 350 349 350 350 351 353 351 350 358 2 358 355 355 359 1 356 349 340 335 333 325 311 293 282 270 257 257 260 261 255 243 232 225 223 219 215 214 212 211 208 204 207 211 211 207 208 211 209 206 206 201 199 205 208 206 205 205 206 208 205 198 196 196 188 181 188 199 200 204 215 221 223 220 214 210 207 200 195 194 194
318 320 324 329 334 338 343 347 347 347 347 346 347 349 350 351 356 0 360 358 355 356 356 351 346 342 340 339 329 316 296 281 265 253 259 263 261 255 248 240 231 226 221 216 215 214 212 210 207 207 210 209 207 209 213 212 210 208 199 193 200 206 202 202 204 201 203 207 203 199 198 192 180 177 192 203 204 212 220 220 220 215 212 211 207 200 196 194
311 313 316 320 326 330 335 340 344 345 344 344 343 344 348 350 354 358 0 359 355 353 352 349 344 340 342 343 333 320 300 276 258 254 263 265 257 254 252 245 235 228 224 219 218 218 216 213 210 209 209 208 208 210 215 215 210 207 202 195 200 210 207 202 205 203 204 206 198 193 193 191 190 187 194 206 206 213 224 227 228 222 214 211 209 204 198 192
309 309 311 316 320 324 329 335 340 341 339 340 340 339 343 348 351 356 359 357 353 350 349 346 341 340 345 347 337 326 311 283 253 249 262 265 254 248 247 244 235 228 224 220 220 221 220 217 214 211 209 207 208 211 213 214 210 207 203 200 204 211 210 205 205 208 214 213 200 193 192 192 199 200 199 208 210 210 225 238 248 232 216 209 208 207 202 195
308 307 308 311 315 319 323 329 335 336 335 336 335 335 340 344 347 352 357 356 351 349 347 341 338 341 346 348 344 333 319 298 270 257 264 265 252 241 241 241 235 228 225 220 220 222 222 221 217 213 210 208 209 212 212 212 212 209 204 202 207 211 211 208 205 210 218 217 208 203 200 199 205 207 207 212 213 212 227 272 289 240 212 204 205 207 206 201
310 308 307 307 310 312 316 322 328 330 332 332 330 331 335 339 341 345 354 355 351 349 345 335 334 339 341 344 343 335 322 307 290 274 268 262 249 239 237 240 235 228 227 221 218 221 223 221 219 214 212 211 212 213 213 214 216 215 206 203 207 212 213 210 208 211 214 213 214 211 207 207 208 209 211 217 221 227 240 274 315 234 194 192 201 205 207 207
313 311 309 307 307 307 309 315 321 324 326 326 326 327 331 335 335 337 348 353 349 347 340 329 328 331 333 335 332 328 319 306 296 282 272 261 247 238 233 236 233 226 227 222 214 219 221 219 218 215 213 213 215 214 213 214 217 218 212 207 205 208 210 209 207 206 206 210 215 210 206 206 207 208 209 217 229 241 248 256 289 183 178 188 204 211 212 211
314 313 311 308 306 304 304 309 314 316 318 321 321 324 328 329 325 325 339 351 347 342 335 325 318 312 318 323 322 320 311 300 292 280 267 255 243 235 228 228 225 222 225 218 209 214 216 214 215 215 214 216 219 218 213 212 214 215 215 210 204 202 206 209 210 210 213 220 221 213 210 209 205 206 207 218 235 249 254 238 225 195 191 200 212 221 225 223
314 314 311 308 305 303 301 303 306 309 313 317 317 319 318 315 316 320 332 347 344 336 326 315 304 296 300 307 311 309 303 295 285 270 258 249 240 233 224 218 211 207 211 209 207 212 212 211 214 216 216 217 222 221 214 212 213 213 213 208 198 199 205 209 214 218 222 228 229 224 221 216 213 219 231 246 257 261 262 240 218 216 221 220 220 227 231 231
311 312 311 307 304 301 298 297 299 303 307 311 312 313 310 308 313 318 323 334 337 328 318 305 294 284 282 294 304 302 297 289 277 260 249 246 241 234 225 215 203 198 199 201 206 210 207 209 215 217 217 220 223 223 217 214 215 215 216 210 198 201 209 212 216 221 223 227 232 231 230 230 235 249 257 263 266 265 264 255 239 229 237 245 245 246 237 228
307 308 308 305 301 297 294 293 294 298 301 305 307 307 306 305 309 313 317 323 324 317 311 302 287 263 260 284 299 300 295 279 265 251 244 247 245 238 231 219 206 199 199 201 205 207 202 206 216 218 216 221 225 225 221 217 215 217 221 217 207 206 210 214 218 223 224 225 230 235 240 243 250 258 263 264 262 261 261 260 257 250 251 260 265 275 258 225
301 303 304 302 297 294 294 293 292 293 296 300 302 302 304 304 304 310 315 314 310 307 306 306 294 256 234 250 280 295 293 266 253 245 242 249 250 246 242 230 216 207 204 204 205 206 203 204 215 219 215 219 226 226 224 220 218 219 220 221 216 211 209 212 215 220 222 223 228 234 240 244 250 257 262 263 259 256 254 255 257 253 253 260 266 287 276 221
296 298 298 296 294 294 295 294 293 292 292 295 297 296 299 297 294 300 309 308 302 297 300 304 302 279 249 240 252 274 275 258 252 247 243 247 249 250 251 244 230 219 214 210 205 206 208 206 211 219 216 216 223 227 224 221 221 222 219 218 218 213 209 210 212 216 220 221 226 231 234 238 245 252 257 259 256 252 248 245 248 246 241 237 234 262 269 215
293 293 293 292 292 294 295 294 293 292 287 286 285 284 285 284 283 287 297 299 293 288 290 296 299 295 275 255 242 243 251 252 253 251 249 249 250 252 252 251 244 231 225 220 212 210 214 211 210 216 218 217 220 226 226 222 223 224 220 217 219 218 216 216 215 218 221 223 226 230 232 234 241 246 246 248 248 245 241 237 238 240 238 231 217 216 227 220
290 288 287 287 289 292 293 292 292 289 282 277 276 277 277 274 272 275 282 286 282 279 281 285 291 297 289 268 251 235 234 241 246 248 250 251 251 254 254 251 252 243 232 229 222 217 220 219 214 213 217 218 218 224 228 224 222 222 219 219 221 222 221 220 220 223 225 226 228 231 234 235 238 238 236 236 237 236 235 233 231 233 235 231 220 210 210 216
288 285 282 283 286 288 290 290 290 286 279 273 272 273 273 269 266 267 275 282 279 275 273 272 281 290 291 280 264 244 232 234 238 241 245 248 249 253 255 252 253 250 240 235 231 224 223 225 221 216 215 216 218 222 228 226 222 220 220 220 221 224 225 221 220 223 226 227 229 233 238 238 233 229 227 229 232 231 231 232 231 231 233 232 226 218 213 215
285 282 279 280 282 283 285 287 287 282 276 271 270 271 269 267 268 268 272 277 276 272 268 264 270 279 283 284 273 255 242 236 237 238 239 243 246 247 249 247 246 248 245 240 236 230 226 225 223 219 217 215 216 222 226 228 225 223 223 224 224 227 230 228 225 224 226 228 230 234 238 237 228 223 223 225 230 231 231 233 234 234 235 237 235 228 223 222
282 279 277 277 278 279 281 283 283 279 275 269 266 268 268 266 271 275 275 276 273 269 264 262 264 269 273 280 280 267 252 241 239 239 236 235 239 240 239 239 239 240 241 240 238 235 232 230 223 218 218 217 217 222 226 227 228 227 227 228 229 230 233 235 233 231 230 231 234 236 238 236 226 220 221 225 229 232 232 233 236 237 237 240 242 238 235 232
279 278 275 274 275 276 277 278 278 276 275 269 264 265 267 268 272 276 275 274 272 269 266 263 261 261 263 269 276 272 262 248 239 239 238 236 235 235 234 234 237 237 235 236 236 235 236 236 230 222 220 219 219 222 226 227 228 229 230 232 234 234 235 237 237 236 234 233 235 238 240 238 230 223 225 228 230 233 234 234 238 242 243 246 248 244 241 241
277 275 273 271 272 273 274 273 273 273 272 270 265 264 266 269 271 271 266 266 269 269 266 264 260 256 256 259 265 267 265 257 247 243 242 241 238 237 236 235 237 238 234 231 233 233 233 236 234 227 223 223 223 224 226 227 227 229 231 233 236 238 237 238 238 238 236 234 234 238 243 243 236 231 232 234 234 234 234 237 244 248 249 253 253 247 244 246
274 273 272 270 269 269 270 269 269 269 268 267 266 264 264 265 266 263 253 248 260 264 262 262 260 252 249 251 255 259 260 257 253 251 249 248 246 244 245 242 240 240 237 230 229 230 232 234 233 229 225 223 224 226 227 228 228 228 231 233 237 240 240 240 240 240 238 236 235 237 243 245 242 239 239 238 238 237 237 242 250 252 253 255 256 254 251 251
270 270 270 268 267 265 265 265 265 265 265 264 264 262 259 259 259 259 253 239 240 253 257 259 259 253 248 250 253 258 261 258 253 251 250 253 252 249 251 253 248 243 238 231 226 226 228 232 231 229 227 225 225 227 229 229 228 229 231 233 236 240 241 241 243 244 244 241 240 238 239 242 243 243 245 244 243 241 241 246 251 253 253 255 258 260 258 254
266 266 267 266 265 264 262 262 262 261 261 261 261 259 256 255 256 258 257 245 233 236 244 249 252 250 246 247 251 256 260 259 256 253 251 253 255 253 254 257 258 251 241 232 226 222 222 228 229 228 229 230 229 229 229 229 229 229 230 233 235 238 241 241 242 245 246 245 244 242 240 239 240 243 247 249 249 247 247 249 251 252 251 253 258 263 263 258
263 263 263 264 264 263 262 261 260 259 259 258 258 257 256 253 254 255 254 249 241 236 235 237 241 242 242 243 247 251 253 253 254 256 255 254 256 258 257 256 255 253 245 236 229 223 219 222 227 229 231 233 232 231 231 230 230 229 230 232 235 237 240 242 243 244 244 244 244 244 243 240 240 243 247 249 250 251 252 251 250 250 250 252 257 262 265 266
261 260 260 261 261 261 261 260 259 258 257 256 255 255 255 254 253 253 252 250 247 244 240 236 237 239 240 243 246 249 249 247 248 252 254 255 257 260 262 260 256 252 248 242 237 231 224 222 224 227 231 233 234 234 235 235 233 231 231 231 233 236 239 242 244 245 246 245 244 244 244 241 240 243 247 248 249 250 252 253 251 250 249 252 255 258 262 266
Height
5887 5886 5886 5885 5884 5883 5882 5881 5880 5879 5879 5878 5878 5877 5877 5876 5876 5876 5876 5877 5877 5878 5879 5879 5880 5881 5881 5882 5883 5883 5884 5885 5886 5887 5889 5890 5891 5892 5893 5894 5895 5896 5897 5897 5898 5898 5898 5899 5900 5901 5901 5901 5902 5902 5902 5903 5904 5904 5904 5904 5904 5905 5905 5905 5905 5905 5905 5905 5906 5906 5906 5907 5907 5908 5908 5908 5908 5908 5908 5907 5906 5906 5906 5906 5905 5905 5905 5905
5887 5886 5885 5884 5883 5882 5881 5880 5879 5878 5878 5877 5876 5876 5876 5875 5875 5875 5875 5875 5876 5876 5877 5878 5879 5879 5880 5881 5881 5882 5882 5883 5884 5886 5888 5889 5890 5891 5892 5893 5894 5895 5896 5896 5897 5897 5898 5899 5900 5900 5901 5901 5902 5902 5902 5903 5904 5904 5904 5904 5904 5905 5905 5905 5905 5905 5905 5905 5906 5906 5907 5907 5908 5908 5909 5908 5908 5908 5908 5908 5907 5906 5907 5906 5906 5906 5905 5906
5886 5885 5884 5883 5882 5881 5880 5879 5878 5877 5876 5876 5875 5875 5874 5874 5874 5873 5873 5873 5874 5875 5875 5876 5877 5878 5879 5879 5880 5880 5881 5882 5883 5884 5886 5887 5889 5890 5891 5892 5893 5895 5895 5896 5896 5897 5898 5898 5899 5900 5901 5901 5901 5902 5902 5903 5904 5904 5904 5904 5904 5905 5905 5905 5905 5905 5905 5905 5906 5907 5907 5907 5908 5909 5910 5909 5909 5909 5909 5909 5908 5907 5907 5907 5907 5906 5906 5906
5886 5884 5883 5882 5881 5880 5879 5878 5877 5876 5875 5875 5874 5873 5873 5873 5872 5872 5872 5872 5872 5873 5873 5874 5875 5876 5877 5878 5878 5879 5879 5880 5881 5882 5884 5886 5887 5888 5890 5891 5893 5894 5894 5895 5895 5896 5897 5898 5899 5900 5900 5901 5901 5901 5902 5902 5903 5904 5904 5904 5904 5904 5905 5905 5905 5905 5905 5905 5906 5906 5907 5907 5908 5908 5910 5910 5910 5909 5909 5909 5909 5908 5908 5908 5907 5907 5907 5907
5885 5884 5882 5881 5880 5879 5877 5876 5875 5875 5874 5873 5873 5872 5872 5871 5871 5871 5871 5871 5871 5871 5872 5872 5873 5874 5875 5876 5877 5877 5878 5879 5880 5881 5883 5884 5886 5887 5888 5890 5892 5892 5893 5893 5894 5895 5897 5898 5898 5899 5900 5901 5901 5901 5902 5902 5903 5903 5903 5904 5904 5904 5904 5905 5905 5905 5905 5905 5905 5906 5906 5907 5908 5908 5909 5910 5910 5910 5909 5910 5909 5909 5909 5908 5908 5908 5907 5908
5884 5883 5882 5880 5879 5878 5876 5875 5874 5873 5873 5872 5871 5871 5870 5870 5870 5869 5869 5869 5869 5870 5870 5870 5871 5872 5873 5874 5875 5875 5876 5877 5879 5880 5881 5883 5884 5885 5887 5888 5890 5891 5892 5892 5893 5894 5896 5897 5897 5898 5899 5900 5900 5901 5902 5902 5903 5903 5903 5903 5904 5904 5904 5904 5904 5904 5905 5904 5905 5905 5906 5907 5907 5907 5909 5909 5910 5910 5910 5910 5910 5910 5910 5909 5909 5909 5908 5909
5883 5882 5881 5880 5878 5877 5875 5874 5873 5872 5871 5870 5870 5869 5869 5869 5868 5868 5868 5868 5868 5868 5868 5869 5869 5870 5871 5872 5873 5873 5874 5876 5877 5878 5879 5881 5882 5884 5885 5887 5888 5889 5890 5890 5891 5893 5895 5896 5896 5897 5898 5900 5900 5900 5901 5902 5903 5902 5903 5903 5903 5903 5904 5904 5904 5903 5904 5904 5904 5905 5906 5907 5907 5907 5908 5909 5910 5911 5911 5911 5911 5910 5910 5910 5910 5910 5909 5909
5883 5881 5880 5879 5877 5876 5874 5872 5871 5871 5870 5869 5869 5868 5868 5867 5867 5867 5867 5867 5867 5867 5867 5867 5868 5868 5869 5869 5870 5871 5873 5874 5875 5876 5878 5879 5880 5882 5883 5885 5886 5887 5889 5889 5889 5891 5893 5895 5895 5896 5897 5898 5899 5900 5901 5902 5902 5902 5902 5902 5903 5903 5903 5903 5903 5902 5902 5903 5903 5905 5906 5906 5906 5907 5908 5909 5910 5911 5912 5911 5912 5911 5911 5911 5911 5911 5910 5910
5882 5880 5879 5878 5876 5875 5873 5872 5870 5870 5869 5868 5867 5867 5866 5866 5866 5865 5865 5865 5865 5865 5865 5865 5866 5866 5867 5867 5868 5869 5870 5872 5873 5874 5875 5876 5877 5879 5881 5883 5884 5885 5887 5887 5888 5889 5891 5893 5894 5896 5897 5897 5898 5899 5900 5901 5901 5902 5902 5902 5903 5903 5903 5902 5901 5901 5901 5902 5903 5905 5906 5906 5907 5907 5908 5909 5910 5911 5912 5912 5912 5912 5911 5911 5912 5912 5912 5911
5881 5879 5878 5877 5875 5874 5872 5871 5870 5869 5868 5867 5866 5866 5865 5865 5864 5864 5864 5863 5863 5863 5863 5864 5864 5864 5864 5865 5866 5867 5868 5869 5870 5871 5872 5873 5875 5876 5878 5879 5881 5883 5885 5886 5885 5886 5889 5892 5894 5895 5896 5896 5897 5898 5899 5900 5900 5901 5902 5902 5902 5903 5902 5901 5900 5899 5899 5901 5902 5904 5906 5906 5907 5907 5908 5909 5909 5911 5912 5913 5913 5913 5913 5912 5912 5913 5913 5912
5880 5879 5877 5876 5875 5873 5872 5870 5869 5868 5867 5866 5865 5865 5864 5864 5863 5863 5862 5862 5862 5862 5862 5862 5862 5862 5862 5863 5863 5864 5865 5866 5867 5868 5870 5871 5872 5873 5875 5876 5879 5881 5883 5884 5882 5884 5889 5892 5893 5894 5895 5895 5896 5897 5898 5899 5900 5900 5901 5901 5901 5902 5902 5901 5900 5899 5899 5901 5902 5904 5905 5906 5907 5907 5907 5908 5909 5910 5912 5913 5913 5914 5913 5913 5913 5913 5914 5914
5879 5878 5877 5875 5874 5872 5871 5870 5868 5867 5866 5865 5864 5863 5863 5862 5862 5861 5861 5860 5860 5860 5860 5860 5859 5860 5860 5860 5861 5861 5862 5863 5864 5866 5867 5868 5870 5871 5873 5874 5876 5878 5880 5880 5880 5884 5889 5891 5892 5893 5893 5894 5895 5896 5897 5898 5899 5899 5900 5900 5901 5901 5901 5900 5901 5900 5900 5901 5902 5903 5905 5906 5907 5907 5908 5909 5909 5910 5912 5913 5914 5914 5914 5914 5914 5914 5915 5915
5878 5877 5876 5875 5873 5872 5871 5869 5868 5867 5865 5864 5863 5862 5861 5861 5860 5860 5859 5859 5858 5858 5858 5857 5857 5857 5857 5858 5858 5859 5860 5861 5862 5863 5865 5866 5868 5869 5871 5872 5873 5875 5877 5877 5879 5884 5887 5889 5891 5891 5892 5893 5894 5895 5896 5897 5897 5898 5899 5900 5900 5900 5900 5900 5901 5901 5901 5902 5902 5903 5905 5906 5907 5907 5908 5909 5910 5911 5912 5913 5914 5915 5915 5915 5915 5915 5916 5916
5877 5876 5875 5874 5873 5871 5870 5869 5867 5866 5865 5863 5862 5861 5860 5860 5859 5858 5857 5857 5856 5856 5855 5855 5855 5855 5855 5855 5856 5857 5858 5859 5860 5861 5863 5864 5865 5867 5868 5869 5871 5872 5874 5875 5878 5882 5885 5887 5889 5890 5891 5892 5893 5894 5895 5896 5896 5897 5898 5899 5899 5899 5900 5900 5900 5901 5901 5902 5902 5903 5904 5905 5907 5907 5908 5909 5909 5911 5912 5913 5914 5915 5916 5916 5916 5916 5916 5917
5876 5875 5874 5873 5872 5870 5869 5868 5867 5865 5864 5863 5861 5860 5859 5858 5858 5857 5856 5855 5854 5854 5853 5853 5853 5853 5853 5853 5854 5855 5856 5857 5858 5859 5860 5861 5863 5864 5866 5867 5868 5870 5871 5873 5876 5880 5883 5885 5887 5889 5890 5891 5892 5893 5894 5894 5895 5895 5897 5898 5898 5899 5899 5900 5900 5900 5901 5901 5902 5903 5903 5904 5906 5907 5907 5908 5909 5911 5912 5913 5914 5916 5917 5917 5917 5917 5917 5917
5875 5874 5873 5872 5871 5870 5868 5867 5866 5865 5863 5862 5861 5860 5859 5858 5857 5856 5855 5854 5853 5852 5851 5851 5851 5851 5851 5851 5852 5853 5854 5855 5856 5856 5857 5859 5860 5862 5863 5865 5866 5868 5869 5871 5875 5879 5881 5884 5886 5887 5888 5889 5891 5892 5892 5893 5893 5894 5895 5897 5898 5898 5899 5899 5900 5900 5900 5900 5901 5902 5903 5904 5906 5907 5907 5908 5910 5911 5913 5913 5914 5916 5917 5918 5918 5917 5918 5918
5875 5874 5872 5871 5870 5869 5867 5866 5865 5864 5863 5861 5860 5859 5858 5856 5855 5854 5853 5853 5852 5851 5850 5850 5850 5850 5850 5850 5851 5851 5852 5853 5854 5855 5856 5857 5858 5859 5861 5863 5864 5866 5867 5870 5874 5877 5880 5882 5885 5886 5887 5889 5890 5890 5891 5891 5893 5894 5895 5896 5897 5897 5898 5899 5899 5900 5900 5900 5900 5902 5903 5904 5905 5906 5907 5908 5910 5911 5912 5913 5914 5915 5917 5918 5918 5918 5918 5919
5874 5873 5871 5870 5869 5868 5867 5866 5864 5863 5862 5860 5859 5858 5856 5855 5854 5853 5852 5851 5851 5850 5849 5849 5848 5848 5849 5849 5849 5850 5851 5851 5852 5853 5854 5855 5856 5857 5859 5860 5862 5864 5865 5868 5873 5875 5878 5881 5884 5885 5887 5888 5888 5888 5889 5890 5892 5893 5894 5895 5896 5897 5897 5898 5898 5899 5899 5899 5900 5901 5902 5903 5905 5906 5907 5908 5910 5911 5912 5913 5914 5915 5917 5918 5919 5919 5919 5919
5873 5872 5871 5869 5868 5867 5866 5865 5863 5862 5861 5859 5858 5857 5856 5854 5853 5852 5851 5850 5849 5849 5848 5848 5847 5847 5847 5847 5848 5849 5849 5850 5850 5851 5852 5853 5854 5855 5857 5858 5860 5862 5863 5866 5870 5873 5876 5880 5883 5885 5886 5886 5885 5886 5888 5890 5891 5892 5893 5894 5895 5896 5896 5897 5897 5898 5898 5898 5899 5900 5901 5903 5904 5906 5907 5908 5909 5910 5912 5914 5914 5915 5917 5918 5919 5920 5920 5920
5872 5871 5870 5869 5867 5866 5865 5864 5863 5861 5860 5859 5857 5856 5855 5854 5852 5851 5850 5849 5848 5848 5847 5846 5846 5846 5846 5846 5846 5847 5848 5848 5849 5850 5851 5852 5853 5854 5855 5856 5857 5859 5861 5864 5868 5872 5875 5878 5882 5884 5883 5882 5882 5885 5887 5888 5890 5891 5892 5893 5894 5895 5896 5897 5897 5898 5898 5897 5898 5899 5901 5903 5904 5905 5906 5907 5909 5910 5912 5913 5914 5915 5917 5918 5919 5920 5920 5921
5871 5870 5869 5868 5867 5866 5864 5863 5862 5860 5859 5858 5856 5855 5854 5853 5851 5850 5849 5848 5847 5847 5846 5846 5846 5846 5845 5845 5845 5845 5846 5847 5847 5848 5849 5850 5851 5852 5853 5854 5855 5857 5859 5862 5866 5870 5873 5876 5879 5880 5878 5878 5882 5885 5886 5887 5889 5890 5891 5892 5893 5894 5895 5896 5897 5898 5898 5898 5898 5899 5900 5902 5903 5904 5905 5907 5909 5910 5911 5911 5912 5914 5916 5917 5919 5920 5921 5921
5871 5870 5868 5867 5866 5865 5864 5862 5861 5860 5858 5857 5856 5855 5853 5852 5851 5850 5848 5847 5846 5846 5845 5845 5845 5845 5844 5844 5844 5844 5844 5845 5846 5846 5847 5848 5849 5849 5851 5852 5853 5855 5857 5860 5865 5868 5871 5874 5876 5876 5876 5878 5882 5883 5884 5886 5888 5889 5891 5891 5892 5893 5895 5896 5897 5897 5898 5898 5898 5899 5900 5902 5903 5904 5905 5906 5908 5909 5909 5910 5911 5913 5915 5916 5918 5920 5921 5921
5870 5869 5868 5867 5865 5864 5863 5862 5860 5859 5858 5856 5855 5854 5852 5851 5850 5849 5848 5847 5846 5845 5845 5844 5844 5844 5843 5843 5843 5843 5843 5843 5844 5845 5845 5846 5847 5847 5848 5850 5851 5853 5856 5859 5862 5866 5868 5870 5872 5873 5874 5877 5880 5882 5884 5886 5887 5888 5889 5890 5891 5893 5894 5895 5896 5896 5897 5898 5899 5899 5900 5902 5903 5903 5904 5905 5907 5908 5909 5910 5910 5912 5914 5915 5917 5919 5920 5921
5869 5868 5867 5866 5865 5863 5862 5861 5859 5858 5856 5855 5854 5852 5850 5849 5848 5848 5847 5846 5845 5845 5844 5844 5843 5843 5843 5842 5842 5842 5842 5842 5843 5843 5844 5845 5845 5846 5846 5848 5849 5851 5853 5856 5860 5863 5865 5867 5869 5871 5873 5876 5879 5881 5883 5885 5886 5887 5888 5889 5890 5892 5894 5895 5896 5896 5897 5898 5899 5899 5900 5902 5902 5902 5903 5904 5906 5907 5909 5910 5910 5911 5913 5914 5917 5918 5919 5920
5868 5867 5866 5865 5864 5863 5861 5860 5858 5857 5855 5854 5852 5850 5849 5848 5847 5846 5846 5846 5845 5844 5843 5843 5842 5842 5842 5842 5841 5841 5841 5841 5842 5842 5843 5843 5844 5844 5845 5846 5847 5849 5851 5854 5857 5860 5861 5863 5867 5869 5871 5874 5877 5879 5882 5883 5884 5885 5886 5888 5889 5891 5893 5894 5895 5896 5896 5897 5898 5899 5900 5901 5901 5901 5902 5903 5905 5906 5907 5909 5910 5911 5912 5913 5915 5917 5918 5920
5867 5866 5865 5864 5863 5862 5860 5859 5857 5856 5854 5853 5851 5850 5849 5847 5846 5845 5845 5845 5844 5844 5843 5842 5842 5841 5841 5841 5841 5840 5840 5840 5841 5841 5841 5842 5842 5843 5843 5844 5846 5847 5850 5852 5855 5857 5858 5861 5865 5867 5869 5872 5875 5877 5879 5881 5882 5883 5884 5886 5888 5889 5891 5893 5894 5895 5896 5896 5898 5898 5899 5900 5901 5901 5902 5903 5904 5905 5906 5907 5908 5910 5911 5912 5914 5915 5917 5918
5866 5865 5864 5863 5862 5861 5859 5858 5857 5855 5854 5852 5851 5850 5848 5847 5846 5844 5844 5843 5843 5842 5842 5841 5841 5840 5840 5840 5840 5840 5839 5839 5839 5840 5840 5840 5841 5841 5842 5843 5844 5845 5848 5850 5852 5853 5855 5858 5862 5864 5867 5869 5873 5876 5877 5878 5880 5882 5882 5884 5886 5887 5889 5891 5893 5895 5896 5896 5897 5898 5899 5900 5900 5901 5901 5902 5903 5903 5905 5906 5907 5909 5910 5911 5912 5914 5916 5917
5865 5864 5863 5862 5861 5860 5859 5857 5856 5855 5853 5852 5851 5849 5848 5847 5846 5844 5843 5842 5842 5841 5840 5840 5840 5839 5839 5839 5839 5839 5838 5838 5838 5839 5839 5839 5839 5840 5840 5841 5842 5843 5845 5847 5849 5850 5852 5855 5858 5860 5863 5867 5871 5873 5874 5875 5878 5880 5880 5881 5883 5885 5888 5891 5892 5894 5895 5896 5897 5897 5898 5899 5900 5900 5901 5902 5902 5903 5903 5904 5906 5907 5909 5910 5911 5912 5914 5916
5864 5863 5862 5861 5860 5859 5858 5856 5855 5854 5853 5851 5850 5849 5848 5847 5845 5844 5843 5842 5841 5840 5839 5839 5838 5838 5838 5838 5838 5838 5838 5837 5837 5838 5838 5838 5838 5838 5839 5840 5841 5842 5843 5845 5847 5847 5849 5852 5854 5857 5861 5866 5869 5871 5872 5874 5876 5879 5879 5880 5882 5884 5887 5889 5891 5893 5894 5895 5896 5897 5898 5898 5899 5900 5901 5901 5901 5901 5902 5903 5904 5905 5906 5907 5909 5910 5912 5914
5862 5861 5860 5860 5859 5858 5857 5855 5854 5853 5852 5850 5849 5848 5847 5846 5845 5844 5843 5842 5841 5840 5839 5838 5837 5837 5837 5837 5836 5836 5837 5836 5836 5836 5836 5837 5837 5837 5838 5838 5839 5841 5842 5844 5845 5845 5847 5850 5852 5856 5860 5865 5868 5869 5870 5872 5875 5877 5878 5879 5881 5883 5885 5888 5890 5892 5893 5894 5895 5896 5897 5898 5898 5899 5900 5900 5900 5900 5901 5901 5902 5902 5903 5904 5906 5908 5910 5912
5860 5859 5859 5858 5857 5856 5855 5854 5853 5851 5850 5849 5848 5847 5846 5845 5844 5843 5842 5841 5840 5840 5839 5838 5837 5836 5836 5836 5836 5835 5835 5835 5835 5835 5836 5836 5836 5836 5837 5837 5838 5839 5840 5842 5843 5844 5846 5848 5851 5854 5858 5862 5864 5865 5867 5870 5873 5875 5875 5877 5879 5882 5885 5887 5889 5891 5892 5894 5895 5895 5896 5897 5897 5898 5899 5899 5900 5900 5900 5900 5900 5899 5900 5902 5904 5906 5908 5910
5859 5857 5857 5856 5855 5855 5853 5852 5851 5850 5849 5848 5847 5846 5845 5844 5843 5842 5841 5840 5840 5839 5838 5837 5836 5836 5836 5835 5835 5834 5834 5834 5835 5835 5835 5835 5835 5835 5836 5836 5837 5838 5839 5840 5841 5842 5844 5846 5849 5853 5856 5859 5860 5861 5864 5867 5870 5872 5873 5875 5877 5880 5884 5886 5888 5889 5891 5893 5894 5895 5895 5896 5897 5897 5898 5899 5899 5900 5899 5899 5898 5896 5896 5900 5902 5904 5907 5908
5857 5856 5855 5854 5853 5852 5851 5851 5850 5849 5847 5846 5846 5845 5844 5843 5842 5841 5841 5840 5839 5838 5838 5837 5836 5836 5835 5835 5834 5834 5834 5834 5834 5834 5834 5834 5834 5835 5835 5836 5837 5838 5838 5839 5840 5841 5843 5845 5849 5852 5854 5857 5858 5860 5863 5867 5869 5870 5872 5874 5876 5880 5883 5886 5887 5888 5890 5892 5893 5894 5894 5895 5896 5897 5897 5898 5898 5899 5899 5898 5896 5894 5894 5899 5901 5903 5905 5906
5855 5854 5853 5852 5851 5850 5849 5849 5848 5847 5846 5845 5844 5844 5843 5842 5841 5840 5840 5839 5838 5838 5837 5837 5836 5835 5835 5834 5834 5834 5833 5833 5833 5833 5833 5833 5834 5834 5835 5835 5836 5837 5838 5839 5840 5841 5842 5845 5848 5850 5853 5855 5857 5859 5863 5866 5867 5868 5870 5872 5875 5878 5881 5884 5885 5886 5888 5890 5891 5893 5893 5894 5895 5896 5896 5897 5897 5898 5898 5898 5897 5895 5897 5900 5901 5902 5903 5904
5853 5852 5851 5850 5849 5848 5848 5847 5846 5845 5844 5844 5843 5842 5841 5840 5840 5839 5839 5838 5838 5837 5837 5836 5835 5835 5834 5834 5834 5833 5833 5833 5833 5833 5833 5833 5833 5834 5834 5835 5836 5837 5838 5839 5840 5841 5843 5845 5846 5849 5851 5853 5855 5857 5861 5863 5864 5866 5868 5870 5873 5876 5878 5881 5883 5884 5886 5887 5890 5892 5893 5894 5895 5895 5896 5896 5896 5897 5897 5897 5898 5898 5899 5900 5901 5902 5903 5903
5851 5850 5849 5848 5847 5846 5846 5845 5844 5843 5842 5842 5841 5840 5840 5839 5839 5838 5837 5837 5837 5837 5836 5836 5835 5834 5834 5834 5834 5833 5833 5833 5833 5833 5833 5833 5833 5833 5834 5835 5836 5837 5838 5839 5840 5841 5843 5844 5846 5847 5850 5852 5853 5855 5859 5861 5862 5864 5866 5868 5871 5873 5876 5878 5880 5882 5884 5886 5889 5891 5892 5893 5893 5894 5895 5895 5896 5896 5897 5897 5898 5898 5899 5900 5900 5901 5902 5902
5849 5848 5847 5846 5845 5844 5843 5843 5842 5841 5841 5840 5839 5838 5838 5838 5837 5836 5836 5836 5836 5836 5836 5835 5835 5834 5834 5834 5834 5833 5833 5833 5833 5833 5833 5833 5833 5834 5834 5835 5836 5836 5838 5839 5840 5841 5843 5844 5845 5847 5848 5850 5852 5854 5857 5858 5860 5862 5865 5868 5869 5871 5873 5875 5877 5879 5882 5885 5888 5890 5891 5891 5892 5893 5893 5894 5895 5895 5896 5897 5897 5898 5899 5899 5900 5900 5900 5899
5847 5846 5845 5844 5843 5842 5841 5841 5841 5840 5839 5838 5837 5836 5836 5836 5836 5835 5835 5834 5835 5835 5835 5835 5835 5834 5834 5834 5833 5833 5833 5833 5833 5832 5832 5833 5833 5834 5834 5835 5836 5836 5837 5838 5839 5841 5842 5844 5844 5846 5848 5850 5851 5853 5855 5857 5859 5861 5864 5865 5867 5869 5871 5873 5875 5878 5880 5883 5886 5888 5889 5890 5891 5891 5892 5893 5894 5894 5895 5896 5897 5898 5898 5899 5899 5898 5897 5895
5845 5844 5843 5842 5840 5839 5839 5839 5839 5838 5837 5836 5835 5835 5834 5834 5834 5834 5833 5833 5833 5834 5834 5834 5834 5833 5833 5833 5833 5832 5832 5832 5832 5832 5832 5833 5833 5834 5834 5835 5836 5836 5837 5838 5839 5840 5841 5843 5844 5845 5847 5849 5850 5852 5854 5856 5858 5860 5862 5864 5865 5867 5869 5871 5873 5876 5878 5881 5884 5886 5887 5888 5890 5890 5890 5891 5892 5893 5894 5895 5895 5896 5897 5897 5897 5896 5894 5893
5842 5841 5840 5839 5838 5837 5837 5837 5837 5836 5836 5835 5834 5833 5833 5832 5832 5832 5831 5831 5832 5832 5832 5832 5833 5832 5832 5832 5832 5832 5831 5831 5832 5832 5832 5833 5833 5833 5834 5835 5835 5836 5837 5837 5838 5840 5840 5841 5843 5844 5846 5848 5850 5851 5853 5855 5857 5858 5861 5863 5865 5866 5867 5869 5872 5874 5876 5879 5881 5883 5885 5887 5888 5888 5888 5890 5891 5892 5892 5893 5893 5894 5894 5895 5894 5894 5894 5894
5840 5839 5838 5837 5836 5835 5835 5834 5834 5834 5834 5833 5832 5832 5831 5831 5830 5830 5830 5830 5830 5831 5831 5831 5831 5831 5831 5831 5831 5831 5831 5831 5831 5831 5832 5832 5832 5833 5833 5834 5835 5835 5836 5837 5838 5838 5839 5840 5842 5844 5846 5847 5849 5850 5852 5853 5855 5856 5859 5862 5863 5865 5866 5868 5871 5872 5875 5877 5879 5881 5882 5885 5886 5886 5887 5888 5889 5890 5891 5891 5891 5891 5892 5893 5893 5893 5894 5895
5837 5836 5835 5834 5833 5833 5833 5832 5832 5832 5832 5831 5831 5830 5830 5829 5829 5828 5828 5828 5828 5829 5830 5830 5830 5830 5830 5829 5829 5830 5830 5830 5830 5831 5831 5831 5831 5832 5832 5833 5834 5834 5835 5836 5837 5838 5838 5839 5841 5843 5845 5846 5847 5849 5850 5852 5853 5855 5858 5860 5862 5864 5865 5867 5869 5871 5873 5875 5878 5879 5880 5883 5885 5885 5885 5886 5887 5888 5889 5889 5889 5890 5890 5892 5893 5893 5894 5895
5834 5833 5832 5831 5831 5830 5830 5830 5830 5830 5829 5829 5829 5828 5828 5828 5827 5826 5826 5826 5826 5827 5828 5828 5828 5828 5828 5828 5828 5828 5828 5829 5829 5829 5830 5830 5830 5830 5831 5832 5832 5833 5834 5835 5836 5837 5837 5838 5839 5841 5843 5845 5846 5847 5849 5850 5852 5854 5856 5858 5860 5862 5864 5866 5867 5868 5871 5873 5875 5877 5878 5880 5883 5883 5883 5884 5885 5886 5887 5887 5888 5889 5890 5891 5892 5893 5894 5894
5831 5830 5829 5828 5828 5828 5827 5827 5827 5827 5827 5827 5827 5826 5826 5826 5825 5824 5824 5824 5825 5825 5826 5827 5827 5827 5827 5827 5827 5827 5827 5827 5827 5828 5828 5828 5829 5829 5829 5830 5831 5831 5832 5833 5834 5835 5835 5836 5837 5839 5842 5843 5845 5846 5847 5849 5850 5852 5854 5856 5858 5860 5862 5864 5865 5867 5869 5871 5873 5874 5876 5878 5881 5881 5881 5882 5883 5884 5885 5886 5887 5888 5889 5890 5891 5892 5893 5893
5827 5827 5826 5825 5824 5825 5825 5825 5825 5825 5825 5825 5824 5824 5824 5824 5823 5822 5822 5823 5823 5823 5824 5825 5825 5825 5825 5825 5825 5825 5825 5825 5825 5826 5826 5826 5827 5827 5828 5828 5829 5829 5830 5830 5831 5832 5833 5834 5836 5837 5839 5842 5843 5844 5846 5848 5849 5851 5853 5855 5857 5858 5860 5862 5864 5865 5867 5869 5871 5872 5874 5876 5878 5879 5879 5880 5881 5882 5883 5885 5886 5887 5888 5889 5890 5890 5891 5891
5823 5823 5823 5822 5821 5821 5822 5822 5822 5822 5822 5822 5822 5822 5822 5822 5821 5821 5821 5821 5821 5821 5822 5823 5823 5823 5823 5823 5824 5823 5823 5823 5823 5824 5824 5824 5825 5825 5826 5826 5826 5827 5827 5828 5829 5830 5831 5833 5835 5836 5837 5839 5841 5842 5844 5846 5848 5850 5851 5853 5855 5856 5858 5860 5861 5863 5865 5867 5869 5870 5872 5874 5876 5877 5877 5878 5879 5880 5881 5883 5884 5885 5886 5887 5888 5888 5888 5888
5818 5819 5819 5819 5818 5818 5818 5819 5819 5819 5819 5819 5819 5820 5820 5819 5819 5819 5819 5819 5819 5819 5820 5820 5821 5821 5821 5821 5822 5822 5822 5821 5821 5821 5822 5822 5823 5823 5823 5824 5824 5825 5825 5826 5827 5828 5829 5831 5833 5834 5835 5837 5839 5840 5842 5844 5846 5847 5849 5850 5852 5854 5856 5857 5859 5861 5862 5865 5867 5868 5870 5872 5873 5874 5875 5876 5876 5877 5879 5881 5882 5883 5885 5886 5885 5885 5885 5885
5814 5814 5815 5815 5815 5815 5815 5815 5816 5816 5816 5816 5816 5817 5817 5817 5817 5817 5817 5818 5818 5818 5818 5818 5819 5819 5819 5820 5820 5820 5820 5820 5819 5819 5820 5820 5820 5821 5821 5822 5822 5823 5824 5825 5825 5826 5827 5829 5830 5832 5833 5835 5836 5838 5840 5841 5843 5845 5846 5848 5849 5851 5853 5855 5857 5858 5860 5862 5864 5867 5868 5870 5871 5872 5872 5873 5874 5875 5878 5879 5880 5881 5883 5883 5883 5883 5883 5883
5810 5810 5810 5811 5811 5811 5811 5811 5812 5813 5813 5813 5814 5814 5815 5815 5815 5815 5816 5816 5816 5816 5816 5816 5817 5817 5817 5818 5818 5818 5819 5818 5818 5817 5817 5818 5818 5819 5819 5819 5820 5820 5821 5823 5824 5824 5826 5827 5828 5829 5831 5833 5834 5836 5838 5839 5841 5843 5844 5845 5847 5849 5851 5853 5854 5856 5857 5859 5862 5864 5866 5867 5869 5870 5870 5871 5872 5873 5875 5877 5878 5879 5881 5881 5881 5881 5881 5882
5805 5805 5805 5806 5806 5807 5807 5808 5808 5809 5810 5811 5811 5811 5812 5812 5812 5813 5814 5814 5814 5814 5814 5814 5815 5815 5815 5816 5816 5817 5817 5817 5817 5816 5816 5816 5816 5817 5817 5817 5817 5818 5819 5820 5821 5823 5824 5824 5825 5827 5829 5831 5832 5834 5835 5837 5839 5841 5842 5843 5845 5847 5849 5851 5852 5853 5855 5856 5859 5861 5863 5865 5866 5868 5868 5869 5870 5871 5873 5875 5875 5877 5878 5879 5879 5879 5880 5880
5800 5800 5801 5801 5801 5802 5803 5804 5805 5805 5806 5807 5808 5808 5808 5809 5810 5810 5811 5812 5812 5812 5812 5813 5813 5813 5813 5814 5814 5814 5814 5815 5815 5814 5814 5814 5814 5815 5815 5815 5816 5816 5816 5817 5819 5820 5822 5822 5823 5825 5826 5828 5830 5832 5833 5835 5837 5838 5839 5841 5843 5844 5846 5848 5849 5851 5852 5854 5856 5858 5860 5862 5864 5865 5866 5867 5868 5869 5871 5873 5874 5875 5876 5877 5877 5878 5878 5878
5794 5795 5796 5796 5797 5797 5798 5799 5800 5801 5803 5803 5804 5805 5805 5806 5807 5808 5808 5809 5810 5810 5810 5811 5811 5811 5811 5811 5811 5812 5812 5812 5813 5813 5813 5813 5813 5813 5814 5814 5814 5815 5815 5815 5817 5818 5819 5821 5822 5823 5824 5825 5827 5829 5831 5833 5834 5835 5836 5838 5840 5842 5844 5845 5846 5848 5849 5851 5853 5855 5857 5859 5861 5862 5863 5865 5866 5867 5869 5870 5872 5873 5874 5874 5875 5876 5877 5877